Location: Decatur Area Astronomy Club
(40.0275°N, 88.7810°W)
Time: 19:13:21
(UTC-05:00)

Amateur Radio Satellites - All Passes

Search period start: 17 April 2014 18:43
Search period end: 18 April 2014 18:43
Location: Decatur Area Astronomy Club, 40.0275°N, 88.7810°W

Satellite Date Start Highest point End Downlink Frequencies (MHz)
Time Altitude Azimuth
Hamsat 17 Apr 19:03:48 19:07:34 32° 263° (W) 19:11:22 145.90 MHz
UOSAT-12 17 Apr 19:10:52 19:15:09 39° 309° (NW) 19:19:31 437.025 FM, 437.400 FM
JAS-2 17 Apr 19:30:17 19:36:19 70° 258° (WSW) 19:41:45 435.800 - 435.900 CW/SSB, 435.910 FM
Saudisat 1A 17 Apr 19:35:02 19:38:23 21° 45° (NE) 19:41:42 436.775 MHz
ISS 17 Apr 19:39:50 19:41:03 12° 360° (N) 19:42:15 145.800 FM
STRAND 1 17 Apr 19:49:34 19:54:41 85° 285° (WNW) 19:59:47 ?
SO-67 17 Apr 20:15:37 20:18:16 20° 265° (W) 20:20:56 435.3500 MHz FM
Oscar 11 17 Apr 20:35:33 20:36:49 11° 62° (ENE) 20:38:06 145.825 FM, Beacon 2401.500 USB
HO-68 17 Apr 20:39:48 20:46:39 52° 67° (ENE) 20:53:32 435.675 MHz FM
Saudisat 1A 17 Apr 21:14:00 21:18:14 47° 243° (WSW) 21:22:25 436.775 MHz
ISS 17 Apr 21:16:21 21:18:50 19° 20° (NNE) 21:21:20 145.800 FM
STRAND 1 17 Apr 21:32:05 21:33:03 11° 302° (WNW) 21:34:02 ?
FUNcube-1 17 Apr 21:53:35 21:56:59 24° 69° (ENE) 22:00:22 145.950 - 145.970 MHz USB
Oscar 11 17 Apr 22:08:09 22:12:26 68° 259° (WSW) 22:16:45 145.825 FM, Beacon 2401.500 USB
HO-68 17 Apr 22:28:36 22:34:35 29° 265° (W) 22:40:38 435.675 MHz FM
MaSat-1 17 Apr 22:42:25 22:45:05 29° 298° (WNW) 22:47:28 437.345 MHz
ISS 17 Apr 22:52:35 22:55:57 85° 218° (SW) 22:59:19 145.800 FM
SO-50 17 Apr 23:29:06 23:31:21 13° 39° (NE) 23:33:36 436.795 FM
FUNcube-1 17 Apr 23:29:44 23:33:19 26° 264° (W) 23:36:52 145.950 - 145.970 MHz USB
Sapphire 18 Apr 00:22:51 00:27:19 27° 108° (ESE) 00:31:48 437.095 MHz 1200 baud AX-25 AFSK
PCSat 18 Apr 01:06:47 01:12:09 72° 116° (ESE) 01:17:34 145.825 MHz
SO-50 18 Apr 01:07:57 01:12:37 84° 58° (ENE) 01:17:21 436.795 FM
OPAL 18 Apr 01:15:00 01:17:24 14° 58° (ENE) 01:19:49 ?
UOSAT-12 18 Apr 02:01:22 02:04:57 21° 44° (NE) 02:08:32 437.025 FM, 437.400 FM
Sapphire 18 Apr 02:05:25 02:10:31 41° 305° (NW) 02:15:39 437.095 MHz 1200 baud AX-25 AFSK
AO-27 18 Apr 02:08:49 02:12:47 22° 94° (E) 02:16:45 436.795 MHz FM
Oscar 10/S400 18 Apr 02:10:18 02:27:02 27° 132° (SE) 03:06:05 145.825 - 145.975 CW/USB, Beacon 145.810 USB
ITAMSAT 1 18 Apr 02:19:40 02:24:03 27° 96° (E) 02:28:25 435.822 SSB
Oscar 19 18 Apr 02:27:51 02:33:03 65° 102° (ESE) 02:38:11 437.125 CW, 437.150 USB
Oscar 16 18 Apr 02:35:48 02:41:02 82° 103° (ESE) 02:46:14 437.025 USB, Beacon 2401.1428
AO-Echo 18 Apr 02:43:51 02:48:16 36° 97° (E) 02:52:34 ?
KITSAT 1 18 Apr 02:45:19 02:52:52 45° 110° (ESE) 03:00:27 435.175 FM
OPAL 18 Apr 02:50:36 02:55:36 78° 255° (WSW) 03:00:42 ?
SO-50 18 Apr 02:51:49 02:52:31 10° 253° (WSW) 02:53:14 436.795 FM
PCSat 18 Apr 02:52:20 02:56:08 19° 315° (NW) 02:59:57 145.825 MHz
Uribyol 2 18 Apr 03:07:58 03:13:10 85° 104° (ESE) 03:18:21 436.500 FM
Gurwin Techsat 1B 18 Apr 03:30:28 03:35:29 41° 98° (E) 03:40:27 435.225 FM
UOSAT-12 18 Apr 03:40:49 03:45:26 54° 243° (WSW) 03:49:59 437.025 FM, 437.400 FM
AO-27 18 Apr 03:47:35 03:52:28 43° 290° (WNW) 03:57:20 436.795 MHz FM
ITAMSAT 1 18 Apr 03:58:55 04:03:34 35° 292° (WNW) 04:08:12 435.822 SSB
AO-7 18 Apr 04:01:40 04:07:04 18° 91° (E) 04:12:25 29.400 - 29.500 MHz
Oscar 19 18 Apr 04:08:42 04:11:50 16° 298° (WNW) 04:14:57 437.125 CW, 437.150 USB
Oscar 16 18 Apr 04:17:24 04:19:40 13° 300° (WNW) 04:21:56 437.025 USB, Beacon 2401.1428
TMSAT-1 18 Apr 04:19:32 04:24:52 84° 103° (ESE) 04:30:10 436.925 FM
AO-Echo 18 Apr 04:23:05 04:26:50 23° 294° (WNW) 04:30:30 ?
Uosat F 18 Apr 04:39:07 04:43:56 46° 100° (E) 04:48:43 435.120 FM
KITSAT 1 18 Apr 04:40:37 04:48:16 44° 310° (NW) 04:55:59 435.175 FM
Uribyol 2 18 Apr 04:49:51 04:51:54 12° 301° (WNW) 04:53:58 436.500 FM
JAS-1B 18 Apr 05:07:04 05:12:46 88° 285° (WNW) 05:18:39 435.800 - 435.900 CW/SSB
Gurwin Techsat 1B 18 Apr 05:10:57 05:15:12 25° 294° (WNW) 05:19:26 435.225 FM
STRAND 1 18 Apr 05:28:17 05:31:22 16° 62° (ENE) 05:34:27 ?
RS-15 18 Apr 05:45:17 05:53:43 25° 102° (ESE) 06:01:55 29.354 - 29.394 USB, Beacon 29.352 USB
AO-7 18 Apr 05:52:23 06:00:45 87° 289° (WNW) 06:09:05 29.400 - 29.500 MHz
TMSAT-1 18 Apr 06:01:46 06:04:03 13° 300° (WNW) 06:06:19 436.925 FM
Uosat F 18 Apr 06:18:45 06:22:23 21° 296° (WNW) 06:26:00 435.120 FM
JAS-2 18 Apr 06:41:22 06:43:43 13° 91° (E) 06:46:08 435.800 - 435.900 CW/SSB, 435.910 FM
KITSAT 1 18 Apr 06:42:15 06:46:10 14° 336° (NNW) 06:50:06 435.175 FM
Hamsat 18 Apr 06:49:48 06:53:59 45° 99° (E) 06:58:10 145.90 MHz
JAS-1B 18 Apr 07:01:04 07:02:35 11° 304° (NW) 07:04:05 435.800 - 435.900 CW/SSB
STRAND 1 18 Apr 07:04:58 07:10:02 63° 258° (WSW) 07:15:07 ?
MaSat-1 18 Apr 07:05:51 07:08:26 28° 62° (ENE) 07:11:25 437.345 MHz
SO-67 18 Apr 07:40:11 07:43:14 27° 96° (E) 07:46:15 435.3500 MHz FM
AO-7 18 Apr 07:46:52 07:52:24 20° 308° (NW) 07:57:57 29.400 - 29.500 MHz
RS-15 18 Apr 07:53:24 08:04:47 83° 302° (WNW) 08:15:50 29.354 - 29.394 USB, Beacon 29.352 USB
AO-40 18 Apr 07:53:53 09:26:47 25° 221° (SW) 12:47:37 Beacon 2401.320
JAS-2 18 Apr 08:23:54 08:29:15 76° 285° (WNW) 08:35:07 435.800 - 435.900 CW/SSB, 435.910 FM
Hamsat 18 Apr 08:26:54 08:29:36 16° 294° (WNW) 08:32:19 145.90 MHz
MaSat-1 18 Apr 08:45:15 08:46:45 13° 251° (WSW) 08:48:21 437.345 MHz
Sapphire 18 Apr 09:11:04 09:15:14 22° 47° (NE) 09:19:23 437.095 MHz 1200 baud AX-25 AFSK
SO-67 18 Apr 09:13:57 09:16:10 16° 292° (WNW) 09:18:23 435.3500 MHz FM
PANSAT 18 Apr 09:41:13 09:42:27 11° 168° (SSE) 09:43:41 not established
HO-68 18 Apr 09:55:24 10:02:28 57° 102° (ESE) 10:09:30 435.675 MHz FM
PCSat 18 Apr 09:55:28 10:00:45 49° 57° (ENE) 10:05:59 145.825 MHz
Oscar 11 18 Apr 09:57:08 10:00:34 23° 95° (E) 10:04:00 145.825 FM, Beacon 2401.500 USB
RS-15 18 Apr 10:09:48 10:19:00 29° 329° (NNW) 10:28:06 29.354 - 29.394 USB, Beacon 29.352 USB
KITSAT 1 18 Apr 10:39:13 10:45:24 23° 38° (NE) 10:51:32 435.175 FM
Sapphire 18 Apr 10:53:44 10:59:04 59° 246° (WSW) 11:04:21 437.095 MHz 1200 baud AX-25 AFSK
FUNcube-1 18 Apr 11:18:39 11:22:51 57° 101° (E) 11:27:07 145.950 - 145.970 MHz USB
Saudisat 1A 18 Apr 11:19:39 11:23:59 51° 118° (ESE) 11:28:19 436.775 MHz
PANSAT 18 Apr 11:19:44 11:21:57 15° 181° (S) 11:24:09 not established
Oscar 11 18 Apr 11:32:57 11:36:46 31° 290° (WNW) 11:40:36 145.825 FM, Beacon 2401.500 USB
PCSat 18 Apr 11:39:41 11:43:48 22° 254° (WSW) 11:47:54 145.825 MHz
HO-68 18 Apr 11:43:51 11:49:43 28° 300° (WNW) 11:55:35 435.675 MHz FM
Oscar 19 18 Apr 12:09:27 12:10:44 11° 58° (ENE) 12:12:00 437.125 CW, 437.150 USB
Oscar 16 18 Apr 12:16:03 12:18:38 14° 61° (ENE) 12:21:13 437.025 USB, Beacon 2401.1428
RS-15 18 Apr 12:29:37 12:36:38 18° 5° (N) 12:43:38 29.354 - 29.394 USB, Beacon 29.352 USB
KITSAT 1 18 Apr 12:33:53 12:42:02 84° 60° (ENE) 12:50:07 435.175 FM
Uribyol 2 18 Apr 12:48:43 12:51:35 15° 61° (ENE) 12:54:27 436.500 FM
FUNcube-1 18 Apr 12:56:56 12:58:49 13° 296° (WNW) 13:00:42 145.950 - 145.970 MHz USB
Saudisat 1A 18 Apr 13:00:34 13:03:52 20° 315° (NW) 13:07:11 436.775 MHz
PANSAT 18 Apr 13:00:56 13:01:26 10° 194° (SSW) 13:01:55 not established
AO-27 18 Apr 13:26:16 13:30:50 32° 68° (ENE) 13:35:24 436.795 MHz FM
ITAMSAT 1 18 Apr 13:37:00 13:41:48 40° 69° (ENE) 13:46:36 435.822 SSB
Oscar 19 18 Apr 13:44:06 13:49:14 86° 76° (ENE) 13:54:26 437.125 CW, 437.150 USB
Oscar 16 18 Apr 13:52:12 13:57:19 75° 257° (WSW) 14:02:30 437.025 USB, Beacon 2401.1428
AO-Echo 18 Apr 13:55:37 14:00:38 47° 72° (ENE) 14:05:34 ?
TMSAT-1 18 Apr 14:02:36 14:05:42 16° 61° (ENE) 14:08:48 436.925 FM
JAS-1B 18 Apr 14:04:30 14:08:07 14° 58° (ENE) 14:11:29 435.800 - 435.900 CW/SSB
Uribyol 2 18 Apr 14:25:20 14:30:28 69° 258° (WSW) 14:35:38 436.500 FM
KITSAT 1 18 Apr 14:31:06 14:36:25 19° 258° (WSW) 14:41:42 435.175 FM
RS-15 18 Apr 14:43:47 14:53:37 36° 39° (NE) 15:03:33 29.354 - 29.394 USB, Beacon 29.352 USB
Gurwin Techsat 1B 18 Apr 14:50:52 14:56:05 61° 73° (ENE) 15:01:19 435.225 FM
AO-7 18 Apr 15:00:05 15:06:38 27° 56° (NE) 15:13:11 29.400 - 29.500 MHz
OPAL 18 Apr 15:01:29 15:06:01 29° 98° (E) 15:10:31 ?
AO-27 18 Apr 15:05:47 15:10:18 30° 264° (W) 15:14:50 436.795 MHz FM
ITAMSAT 1 18 Apr 15:17:15 15:21:24 24° 265° (W) 15:25:34 435.822 SSB
SO-50 18 Apr 15:22:59 15:26:54 30° 114° (ESE) 15:30:51 436.795 FM
Oscar 19 18 Apr 15:28:45 15:29:13 10° 272° (W) 15:29:42 437.125 CW, 437.150 USB
ISS 18 Apr 15:34:43 15:37:55 44° 137° (SE) 15:41:08 145.800 FM
AO-Echo 18 Apr 15:35:43 15:39:35 21° 267° (W) 15:43:25 ?
TMSAT-1 18 Apr 15:39:46 15:45:02 68° 258° (WSW) 15:50:19 436.925 FM
JAS-1B 18 Apr 15:49:38 15:57:57 77° 74° (ENE) 16:04:51 435.800 - 435.900 CW/SSB
Uosat F 18 Apr 15:51:41 15:56:38 61° 73° (ENE) 16:01:35 435.120 FM
Gurwin Techsat 1B 18 Apr 16:33:14 16:36:27 16° 269° (W) 16:39:41 435.225 FM
OPAL 18 Apr 16:40:12 16:44:52 34° 294° (WNW) 16:49:32 ?
AO-7 18 Apr 16:50:28 16:58:42 71° 255° (WSW) 17:07:00 29.400 - 29.500 MHz
RS-15 18 Apr 16:56:03 17:06:57 75° 243° (WSW) 17:18:10 29.354 - 29.394 USB, Beacon 29.352 USB
SO-50 18 Apr 17:03:30 17:07:26 29° 311° (NW) 17:11:24 436.795 FM
ISS 18 Apr 17:11:55 17:14:47 26° 335° (NNW) 17:17:40 145.800 FM
Uosat F 18 Apr 17:33:01 17:35:48 15° 268° (W) 17:38:36 435.120 FM
Hamsat 18 Apr 17:43:03 17:46:41 29° 70° (ENE) 17:50:22 145.90 MHz
JAS-1B 18 Apr 17:43:18 17:48:51 20° 266° (W) 17:53:52 435.800 - 435.900 CW/SSB
UOSAT-12 18 Apr 17:51:14 17:55:39 53° 117° (ESE) 18:00:10 437.025 FM, 437.400 FM
